JAT633 SCEL-SCQP

Flight info

Callsign JAT633
Flight time 0h 59m
Altitude 37000
Route ANGOD6C ANGOD UQ803 SUMKO SUMKO4E
Aircraft A20N/M-SDE2E3FGHIRWXY/LB1

Departure

Time 2026-05-04 22:02
Airport Comodoro Arturo Merino Benítez International Airport (SCEL)

Arrival

Time 2026-05-04 23:01
Airport La Araucanía International Airport (SCQP)
Time Latitude Longitude Altitude Speed Heading
2026-05-04 21:20 -33.39742 -70.79736 1564 ft 0 kts 355°
2026-05-04 21:46 -33.39756 -70.79735 1564 ft 2 kts 355°
2026-05-04 21:47 -33.39771 -70.79733 1564 ft 2 kts 355°
2026-05-04 21:47 -33.39786 -70.79732 1564 ft 2 kts 355°
2026-05-04 21:47 -33.39801 -70.79731 1564 ft 2 kts
2026-05-04 21:47 -33.39810 -70.79731 1564 ft 1 kts 338°
2026-05-04 21:48 -33.39817 -70.79727 1564 ft 1 kts 309°
2026-05-04 21:48 -33.39821 -70.79719 1564 ft 1 kts 280°
2026-05-04 21:48 -33.39822 -70.79710 1564 ft 1 kts 255°
2026-05-04 21:48 -33.39820 -70.79701 1564 ft 1 kts 261°
2026-05-04 21:49 -33.39819 -70.79691 1564 ft 1 kts 268°
2026-05-04 21:49 -33.39819 -70.79683 1564 ft 0 kts 271°
2026-05-04 21:53 -33.39819 -70.79684 1564 ft 1 kts 271°
2026-05-04 21:53 -33.39819 -70.79711 1564 ft 5 kts 269°
2026-05-04 21:53 -33.39819 -70.79750 1564 ft 8 kts 269°
2026-05-04 21:54 -33.39822 -70.79828 1564 ft 8 kts 264°
2026-05-04 21:54 -33.39843 -70.79893 1564 ft 9 kts 259°
2026-05-04 21:54 -33.39850 -70.79977 1565 ft 9 kts 267°
2026-05-04 21:54 -33.39851 -70.79994 1565 ft 3 kts 265°
2026-05-04 21:55 -33.39843 -70.80020 1565 ft 4 kts 317°
2026-05-04 21:55 -33.39820 -70.80026 1566 ft 5 kts 355°
2026-05-04 21:55 -33.39771 -70.80030 1566 ft 9 kts 355°
2026-05-04 21:55 -33.39694 -70.80032 1566 ft 13 kts 358°
2026-05-04 21:56 -33.39594 -70.80039 1565 ft 16 kts 355°
2026-05-04 21:56 -33.39474 -70.80047 1565 ft 19 kts 358°
2026-05-04 21:56 -33.39337 -70.80056 1566 ft 21 kts 356°
2026-05-04 21:56 -33.39187 -70.80061 1566 ft 22 kts 359°
2026-05-04 21:57 -33.39026 -70.80075 1566 ft 24 kts 349°
2026-05-04 21:57 -33.38857 -70.80079 1567 ft 21 kts 357°
2026-05-04 21:57 -33.38725 -70.80089 1566 ft 20 kts 358°
2026-05-04 21:57 -33.38579 -70.80098 1567 ft 22 kts 356°
2026-05-04 21:58 -33.38411 -70.80102 1566 ft 25 kts 357°
2026-05-04 21:58 -33.38232 -70.80115 1566 ft 27 kts 358°
2026-05-04 21:58 -33.38041 -70.80123 1566 ft 28 kts 358°
2026-05-04 21:58 -33.37839 -70.80135 1565 ft 30 kts 357°
2026-05-04 21:59 -33.37654 -70.80145 1566 ft 24 kts 356°
2026-05-04 21:59 -33.37478 -70.80151 1566 ft 26 kts 356°
2026-05-04 21:59 -33.37296 -70.80168 1567 ft 20 kts 358°
2026-05-04 21:59 -33.37175 -70.80175 1566 ft 10 kts 356°
2026-05-04 22:00 -33.37116 -70.80218 1567 ft 11 kts 304°
2026-05-04 22:00 -33.37106 -70.80301 1572 ft 9 kts 258°
2026-05-04 22:00 -33.37137 -70.80360 1574 ft 9 kts 220°
2026-05-04 22:00 -33.37202 -70.80374 1581 ft 0 kts 177°
2026-05-04 22:01 -33.37450 -70.80368 1582 ft 70 kts 179°
2026-05-04 22:01 -33.38125 -70.80324 1579 ft 123 kts 178°
2026-05-04 22:01 -33.39134 -70.80271 1582 ft 164 kts 177°
2026-05-04 22:02 -33.40290 -70.80185 2132 ft 160 kts 175°
2026-05-04 22:02 -33.41433 -70.80099 2534 ft 170 kts 176°
2026-05-04 22:02 -33.42638 -70.80040 2948 ft 181 kts 178°
2026-05-04 22:02 -33.43939 -70.80016 3444 ft 194 kts 178°
2026-05-04 22:03 -33.45335 -70.79992 3968 ft 209 kts 178°
2026-05-04 22:03 -33.46899 -70.79912 4436 ft 234 kts 174°
2026-05-04 22:03 -33.48575 -70.79732 4995 ft 256 kts 172°
2026-05-04 22:03 -33.50369 -70.79531 5610 ft 273 kts 175°
2026-05-04 22:04 -33.52364 -70.79400 6368 ft 286 kts 177°
2026-05-04 22:04 -33.54379 -70.79290 7185 ft 293 kts 175°
2026-05-04 22:04 -33.56421 -70.79137 8039 ft 298 kts 176°
2026-05-04 22:04 -33.58511 -70.79061 8937 ft 300 kts 182°
2026-05-04 22:05 -33.60593 -70.79351 9875 ft 300 kts 194°
2026-05-04 22:05 -33.62640 -70.80015 10461 ft 314 kts 200°
2026-05-04 22:05 -33.64808 -70.80825 10776 ft 337 kts 200°
2026-05-04 22:05 -33.67130 -70.81658 11210 ft 355 kts 199°
2026-05-04 22:06 -33.69530 -70.82457 12067 ft 358 kts 198°
2026-05-04 22:06 -33.71958 -70.83230 12901 ft 363 kts 198°
2026-05-04 22:06 -33.74414 -70.83996 13753 ft 367 kts 198°
2026-05-04 22:06 -33.76897 -70.84767 14497 ft 370 kts 198°
2026-05-04 22:07 -33.79396 -70.85542 15316 ft 372 kts 199°
2026-05-04 22:07 -33.81910 -70.86323 16086 ft 375 kts 199°
2026-05-04 22:07 -33.84448 -70.87114 16838 ft 377 kts 199°
2026-05-04 22:07 -33.86963 -70.87899 17482 ft 380 kts 199°
2026-05-04 22:08 -33.89559 -70.88708 18255 ft 382 kts 200°
2026-05-04 22:08 -33.92106 -70.89503 18912 ft 384 kts 200°
2026-05-04 22:08 -33.94709 -70.90317 19519 ft 387 kts 200°
2026-05-04 22:08 -33.97319 -70.91132 20212 ft 388 kts 201°
2026-05-04 22:09 -33.99944 -70.91954 20872 ft 390 kts 201°
2026-05-04 22:09 -34.02579 -70.92771 21532 ft 393 kts 200°
2026-05-04 22:09 -34.05258 -70.93524 22129 ft 397 kts 199°
2026-05-04 22:09 -34.07968 -70.94242 22783 ft 400 kts 199°
2026-05-04 22:10 -34.10696 -70.94961 23455 ft 402 kts 200°
2026-05-04 22:10 -34.13444 -70.95693 23989 ft 406 kts 200°
2026-05-04 22:10 -34.16210 -70.96439 24509 ft 408 kts 200°
2026-05-04 22:10 -34.18993 -70.97194 24982 ft 412 kts 200°
2026-05-04 22:11 -34.21800 -70.97959 25517 ft 414 kts 200°
2026-05-04 22:11 -34.24614 -70.98726 25957 ft 417 kts 200°
2026-05-04 22:11 -34.27454 -70.99502 26418 ft 419 kts 201°
2026-05-04 22:11 -34.30311 -71.00282 26854 ft 422 kts 201°
2026-05-04 22:12 -34.33192 -71.01069 27281 ft 425 kts 201°
2026-05-04 22:12 -34.36057 -71.01853 27697 ft 428 kts 201°
2026-05-04 22:12 -34.38963 -71.02648 28138 ft 430 kts 201°
2026-05-04 22:12 -34.41890 -71.03450 28523 ft 432 kts 201°
2026-05-04 22:13 -34.44840 -71.04259 28895 ft 435 kts 201°
2026-05-04 22:13 -34.47799 -71.05071 29303 ft 437 kts 201°
2026-05-04 22:13 -34.50775 -71.05889 29658 ft 440 kts 201°
2026-05-04 22:13 -34.53773 -71.06713 30029 ft 442 kts 201°
2026-05-04 22:14 -34.56783 -71.07542 30362 ft 444 kts 201°
2026-05-04 22:14 -34.59798 -71.08370 30699 ft 446 kts 201°
2026-05-04 22:14 -34.61814 -71.08926 30922 ft 447 kts 201°
2026-05-04 22:14 -34.65876 -71.10044 31430 ft 447 kts 201°
2026-05-04 22:15 -34.68912 -71.10880 31893 ft 445 kts 201°
2026-05-04 22:15 -34.71935 -71.11713 32354 ft 444 kts 200°
2026-05-04 22:15 -34.74906 -71.12511 32764 ft 444 kts 199°
2026-05-04 22:15 -34.77931 -71.13248 33212 ft 442 kts 199°
2026-05-04 22:16 -34.80951 -71.13961 33656 ft 441 kts 199°
2026-05-04 22:16 -34.83958 -71.14673 34056 ft 439 kts 199°
2026-05-04 22:16 -34.86949 -71.15389 34396 ft 438 kts 199°
2026-05-04 22:16 -34.89933 -71.16110 34728 ft 436 kts 199°
2026-05-04 22:17 -34.92901 -71.16830 35074 ft 434 kts 200°
2026-05-04 22:17 -34.95867 -71.17552 35405 ft 433 kts 200°
2026-05-04 22:17 -34.97832 -71.18032 35615 ft 432 kts 200°
2026-05-04 22:17 -35.00785 -71.18752 35923 ft 431 kts 200°
2026-05-04 22:18 -35.03727 -71.19471 36231 ft 430 kts 200°
2026-05-04 22:18 -35.07640 -71.20427 36618 ft 428 kts 200°
2026-05-04 22:18 -35.09575 -71.20900 36810 ft 427 kts 200°
2026-05-04 22:18 -35.13472 -71.21854 36998 ft 427 kts 201°
2026-05-04 22:19 -35.16339 -71.22556 36999 ft 425 kts 201°
2026-05-04 22:19 -35.22133 -71.23977 37007 ft 425 kts 201°
2026-05-04 22:20 -35.27920 -71.25399 37009 ft 424 kts 201°
2026-05-04 22:20 -35.32731 -71.26581 37012 ft 423 kts 201°
2026-05-04 22:21 -35.38520 -71.28006 37019 ft 425 kts 201°
2026-05-04 22:21 -35.44331 -71.29440 37014 ft 426 kts 201°
2026-05-04 22:22 -35.50120 -71.30866 37016 ft 423 kts 201°
2026-05-04 22:22 -35.55902 -71.32296 37018 ft 424 kts 201°
2026-05-04 22:23 -35.61629 -71.33718 37019 ft 424 kts 201°
2026-05-04 22:23 -35.67483 -71.35172 37015 ft 424 kts 201°
2026-05-04 22:24 -35.73273 -71.36611 37017 ft 424 kts 202°
2026-05-04 22:24 -35.79015 -71.38041 37013 ft 423 kts 202°
2026-05-04 22:25 -35.84792 -71.39482 37010 ft 423 kts 202°
2026-05-04 22:25 -35.90564 -71.40925 37011 ft 423 kts 202°
2026-05-04 22:26 -35.96335 -71.42368 37013 ft 423 kts 202°
2026-05-04 22:26 -36.02106 -71.43814 37020 ft 423 kts 202°
2026-05-04 22:27 -36.07872 -71.45261 37015 ft 422 kts 202°
2026-05-04 22:27 -36.13635 -71.46710 37023 ft 423 kts 202°
2026-05-04 22:28 -36.19369 -71.48152 37026 ft 423 kts 202°
2026-05-04 22:28 -36.25120 -71.49603 37024 ft 422 kts 202°
2026-05-04 22:29 -36.30871 -71.51055 37024 ft 421 kts 203°
2026-05-04 22:29 -36.36620 -71.52508 37019 ft 421 kts 203°
2026-05-04 22:30 -36.42359 -71.53961 37020 ft 421 kts 203°
2026-05-04 22:30 -36.48098 -71.55417 37024 ft 421 kts 203°
2026-05-04 22:31 -36.53836 -71.56875 37026 ft 421 kts 203°
2026-05-04 22:31 -36.59576 -71.58334 37028 ft 420 kts 203°
2026-05-04 22:32 -36.65305 -71.59793 37014 ft 419 kts 204°
2026-05-04 22:32 -36.71031 -71.61257 37008 ft 420 kts 204°
2026-05-04 22:33 -36.76721 -71.62710 37010 ft 419 kts 204°
2026-05-04 22:33 -36.82440 -71.64174 37016 ft 420 kts 204°
2026-05-04 22:34 -36.88173 -71.65644 36889 ft 420 kts 204°
2026-05-04 22:34 -36.91043 -71.66381 36626 ft 419 kts 204°
2026-05-04 22:34 -36.93901 -71.67115 36379 ft 420 kts 204°
2026-05-04 22:34 -36.96765 -71.67852 36126 ft 420 kts 204°
2026-05-04 22:35 -36.99634 -71.68590 35873 ft 420 kts 203°
2026-05-04 22:35 -37.02499 -71.69329 35640 ft 422 kts 204°
2026-05-04 22:35 -37.05391 -71.70075 35395 ft 422 kts 203°
2026-05-04 22:35 -37.08271 -71.70818 35152 ft 423 kts 203°
2026-05-04 22:36 -37.11123 -71.71553 34918 ft 423 kts 203°
2026-05-04 22:36 -37.14017 -71.72301 34626 ft 424 kts 203°
2026-05-04 22:36 -37.16922 -71.73055 33964 ft 429 kts 203°
2026-05-04 22:36 -37.19844 -71.73817 33056 ft 434 kts 203°
2026-05-04 22:37 -37.22804 -71.74582 32361 ft 432 kts 202°
2026-05-04 22:37 -37.25753 -71.75346 31576 ft 432 kts 202°
2026-05-04 22:37 -37.28686 -71.76106 31037 ft 428 kts 202°
2026-05-04 22:37 -37.31591 -71.76855 30488 ft 423 kts 202°
2026-05-04 22:38 -37.34402 -71.77583 29877 ft 420 kts 202°
2026-05-04 22:38 -37.37309 -71.78337 29370 ft 413 kts 202°
2026-05-04 22:38 -37.40103 -71.79059 28852 ft 407 kts 202°
2026-05-04 22:38 -37.42851 -71.79773 28326 ft 401 kts 202°
2026-05-04 22:39 -37.45566 -71.80480 27816 ft 396 kts 202°
2026-05-04 22:39 -37.48250 -71.81180 27308 ft 392 kts 202°
2026-05-04 22:39 -37.50903 -71.81873 26807 ft 388 kts 202°
2026-05-04 22:39 -37.53532 -71.82560 26310 ft 383 kts 203°
2026-05-04 22:40 -37.56132 -71.83240 25817 ft 380 kts 203°
2026-05-04 22:40 -37.58712 -71.83916 25325 ft 376 kts 202°
2026-05-04 22:40 -37.61179 -71.84561 24819 ft 374 kts 203°
2026-05-04 22:40 -37.63790 -71.85246 24354 ft 370 kts 203°
2026-05-04 22:41 -37.66307 -71.85906 23837 ft 368 kts 203°
2026-05-04 22:41 -37.68805 -71.86562 23343 ft 364 kts 204°
2026-05-04 22:41 -37.71171 -71.87389 22878 ft 352 kts 210°
2026-05-04 22:41 -37.73511 -71.88602 22405 ft 369 kts 215°
2026-05-04 22:42 -37.75808 -71.90166 21902 ft 380 kts 218°
2026-05-04 22:42 -37.78140 -71.91787 21379 ft 383 kts 217°
2026-05-04 22:42 -37.80454 -71.93371 20892 ft 381 kts 217°
2026-05-04 22:42 -37.82771 -71.94952 20379 ft 375 kts 217°
2026-05-04 22:43 -37.85049 -71.96511 19889 ft 369 kts 217°
2026-05-04 22:43 -37.87256 -71.98029 19404 ft 363 kts 217°
2026-05-04 22:43 -37.89485 -71.99569 18920 ft 358 kts 217°
2026-05-04 22:43 -37.91665 -72.01078 18424 ft 354 kts 217°
2026-05-04 22:44 -37.93811 -72.02565 17927 ft 349 kts 217°
2026-05-04 22:44 -37.95925 -72.04030 17474 ft 343 kts 217°
2026-05-04 22:44 -37.98032 -72.05491 16977 ft 338 kts 217°
2026-05-04 22:44 -38.00044 -72.06888 16543 ft 334 kts 217°
2026-05-04 22:45 -38.02080 -72.08303 16089 ft 329 kts 217°
2026-05-04 22:45 -38.06035 -72.11053 15213 ft 322 kts 216°
2026-05-04 22:45 -38.08032 -72.12444 14773 ft 318 kts 216°
2026-05-04 22:46 -38.09963 -72.13789 14346 ft 315 kts 216°
2026-05-04 22:46 -38.11881 -72.15126 13909 ft 313 kts 216°
2026-05-04 22:46 -38.13787 -72.16457 13468 ft 312 kts 216°
2026-05-04 22:46 -38.15778 -72.17865 13028 ft 343 kts 216°
2026-05-04 22:47 -38.17914 -72.19373 12545 ft 357 kts 214°
2026-05-04 22:47 -38.20097 -72.20897 12059 ft 360 kts 214°
2026-05-04 22:47 -38.22300 -72.22431 11578 ft 358 kts 214°
2026-05-04 22:47 -38.24470 -72.23941 11101 ft 352 kts 213°
2026-05-04 22:48 -38.26601 -72.25429 10621 ft 347 kts 213°
2026-05-04 22:48 -38.28676 -72.26878 10446 ft 333 kts 213°
2026-05-04 22:48 -38.30671 -72.28270 10311 ft 319 kts 213°
2026-05-04 22:48 -38.32570 -72.29597 10187 ft 305 kts 213°
2026-05-04 22:49 -38.34393 -72.30874 10066 ft 292 kts 213°
2026-05-04 22:49 -38.36164 -72.32119 9701 ft 289 kts 213°
2026-05-04 22:49 -38.37918 -72.33353 9292 ft 286 kts 213°
2026-05-04 22:49 -38.39652 -72.34571 8945 ft 282 kts 213°
2026-05-04 22:50 -38.41359 -72.35769 8604 ft 278 kts 213°
2026-05-04 22:50 -38.43041 -72.36952 8273 ft 274 kts 213°
2026-05-04 22:50 -38.44661 -72.38091 7946 ft 271 kts 213°
2026-05-04 22:50 -38.46314 -72.39255 7616 ft 268 kts 213°
2026-05-04 22:51 -38.47940 -72.40401 7302 ft 266 kts 213°
2026-05-04 22:51 -38.49532 -72.41520 7171 ft 254 kts 213°
2026-05-04 22:51 -38.51031 -72.42569 7025 ft 237 kts 214°
2026-05-04 22:51 -38.52428 -72.43546 6889 ft 220 kts 214°
2026-05-04 22:52 -38.53717 -72.44452 6753 ft 204 kts 214°
2026-05-04 22:52 -38.54933 -72.45311 6492 ft 197 kts 215°
2026-05-04 22:52 -38.56122 -72.46158 6107 ft 195 kts 215°
2026-05-04 22:52 -38.57307 -72.47004 5684 ft 195 kts 215°
2026-05-04 22:53 -38.58463 -72.47823 5407 ft 188 kts 215°
2026-05-04 22:53 -38.59627 -72.48647 4944 ft 190 kts 215°
2026-05-04 22:53 -38.60781 -72.49467 4673 ft 189 kts 215°
2026-05-04 22:53 -38.61944 -72.50294 4431 ft 192 kts 215°
2026-05-04 22:54 -38.63101 -72.51114 4195 ft 190 kts 214°
2026-05-04 22:54 -38.64253 -72.51932 3961 ft 189 kts 214°
2026-05-04 22:54 -38.65405 -72.52748 3722 ft 189 kts 214°
2026-05-04 22:54 -38.66557 -72.53565 3530 ft 190 kts 214°
2026-05-04 22:55 -38.67707 -72.54380 3490 ft 188 kts 214°
2026-05-04 22:55 -38.68855 -72.55194 3489 ft 188 kts 214°
2026-05-04 22:55 -38.69987 -72.55998 3487 ft 188 kts 214°
2026-05-04 22:55 -38.71176 -72.56757 3492 ft 190 kts 205°
2026-05-04 22:56 -38.72441 -72.57257 3371 ft 188 kts 201°
2026-05-04 22:56 -38.73688 -72.57725 3040 ft 187 kts 201°
2026-05-04 22:56 -38.74942 -72.58208 2740 ft 187 kts 201°
2026-05-04 22:56 -38.76202 -72.58700 2513 ft 187 kts 201°
2026-05-04 22:57 -38.77388 -72.59160 2411 ft 172 kts 201°
2026-05-04 22:57 -38.78484 -72.59582 2306 ft 151 kts 201°
2026-05-04 22:57 -38.79114 -72.59823 2195 ft 141 kts 202°
2026-05-04 22:57 -38.80353 -72.60314 1968 ft 140 kts 202°
2026-05-04 22:58 -38.80993 -72.60573 1996 ft 145 kts 202°
2026-05-04 22:58 -38.82250 -72.61071 1997 ft 142 kts 202°
2026-05-04 22:58 -38.83193 -72.61441 2003 ft 141 kts 202°
2026-05-04 22:58 -38.83818 -72.61687 1975 ft 143 kts 202°
2026-05-04 22:59 -38.84770 -72.62065 1821 ft 140 kts 202°
2026-05-04 22:59 -38.85689 -72.62431 1532 ft 140 kts 202°
2026-05-04 22:59 -38.86615 -72.62795 1313 ft 141 kts 200°
2026-05-04 22:59 -38.87563 -72.63165 1142 ft 142 kts 198°
2026-05-04 23:00 -38.88511 -72.63530 974 ft 139 kts 198°
2026-05-04 23:00 -38.89418 -72.63881 824 ft 137 kts 197°
2026-05-04 23:00 -38.90306 -72.64269 660 ft 134 kts 197°
2026-05-04 23:00 -38.91206 -72.64612 425 ft 134 kts 194°
2026-05-04 23:01 -38.92092 -72.64972 315 ft 129 kts 194°
2026-05-04 23:01 -38.92693 -72.65199 315 ft 46 kts 197°
2026-05-04 23:01 -38.92762 -72.65227 315 ft 4 kts 198°
2026-05-04 23:01 -38.92805 -72.65225 315 ft 8 kts 168°
2026-05-04 23:02 -38.92849 -72.65185 313 ft 7 kts 96°
2026-05-04 23:02 -38.92856 -72.65115 313 ft 9 kts 98°
2026-05-04 23:02 -38.92865 -72.65041 313 ft 7 kts 101°
2026-05-04 23:02 -38.92870 -72.64977 313 ft 6 kts 68°
2026-05-04 23:03 -38.92834 -72.64945 313 ft 7 kts 18°
2026-05-04 23:03 -38.92781 -72.64924 313 ft 9 kts 18°
2026-05-04 23:03 -38.92719 -72.64899 313 ft 10 kts 17°
2026-05-04 23:03 -38.92650 -72.64872 312 ft 9 kts 23°
2026-05-04 23:04 -38.92644 -72.64808 313 ft 8 kts 108°
2026-05-04 23:04 -38.92658 -72.64752 312 ft 3 kts 106°
2026-05-04 23:04 -38.92659 -72.64745 313 ft 0 kts 106°